date,time,SUV Intensity [MED/Hr],UV Index,Daily total [MED],Since Last [MED]
14/08/2023,00:00:05,-0.001,0.0,0.0,0.0
14/08/2023,00:01:05,0.000,0.0,0.0,0.0
14/08/2023,00:02:05,0.000,0.0,0.0,0.0
14/08/2023,00:03:04,0.000,0.0,0.0,0.0
14/08/2023,00:04:05,0.000,0.0,0.0,0.0
14/08/2023,00:05:05,0.000,0.0,0.0,0.0
14/08/2023,00:06:05,0.000,0.0,0.0,0.0
14/08/2023,00:07:05,0.000,0.0,0.0,0.0
14/08/2023,00:08:05,0.000,0.0,0.0,0.0
14/08/2023,00:09:05,-0.001,0.0,0.0,0.0
14/08/2023,00:10:04,-0.000,0.0,0.0,0.0
14/08/2023,00:11:05,0.000,0.0,0.0,0.0
14/08/2023,00:12:05,-0.000,0.0,0.0,0.0
14/08/2023,00:13:05,0.000,0.0,0.0,0.0
14/08/2023,00:14:03,0.000,0.0,0.0,0.0
14/08/2023,00:15:03,0.000,0.0,0.0,0.0
14/08/2023,00:16:05,0.000,0.0,0.0,0.0
14/08/2023,00:17:05,0.000,0.0,0.0,0.0
14/08/2023,00:18:05,0.000,0.0,0.0,0.0
14/08/2023,00:19:05,0.000,0.0,0.0,0.0
14/08/2023,00:20:05,0.000,0.0,0.0,0.0
14/08/2023,00:21:05,0.000,0.0,0.0,0.0
14/08/2023,00:22:05,0.000,0.0,0.0,0.0
14/08/2023,00:23:05,0.000,0.0,0.0,0.0
14/08/2023,00:24:05,0.000,0.0,0.0,0.0
14/08/2023,00:25:05,0.000,0.0,0.0,0.0
14/08/2023,00:26:05,0.000,0.0,0.0,0.0
14/08/2023,00:27:05,0.000,0.0,0.0,0.0
14/08/2023,00:28:05,0.000,0.0,0.0,0.0
14/08/2023,00:29:05,0.000,0.0,0.0,0.0
14/08/2023,00:30:05,0.000,0.0,0.0,0.0
14/08/2023,00:31:05,0.000,0.0,0.0,0.0
14/08/2023,00:32:05,0.000,0.0,0.0,0.0
14/08/2023,00:33:05,0.000,0.0,0.0,0.0
14/08/2023,00:34:05,0.000,0.0,0.0,0.0
14/08/2023,00:35:05,0.000,0.0,0.0,0.0
14/08/2023,00:36:05,0.000,0.0,0.0,0.0
14/08/2023,00:37:03,0.000,0.0,0.0,0.0
14/08/2023,00:38:03,0.000,0.0,0.0,0.0
14/08/2023,00:39:05,0.000,0.0,0.0,0.0
14/08/2023,00:40:05,-0.001,0.0,0.0,0.0
14/08/2023,00:41:05,0.000,0.0,0.0,0.0
14/08/2023,00:42:05,0.000,0.0,0.0,0.0
14/08/2023,00:43:05,0.000,0.0,0.0,0.0
14/08/2023,00:44:05,0.001,0.0,0.0,0.0
14/08/2023,00:45:05,0.001,0.0,0.0,0.0
14/08/2023,00:46:05,0.000,0.0,0.0,0.0
14/08/2023,00:47:05,0.000,0.0,0.0,0.0
14/08/2023,00:48:05,0.001,0.0,0.0,0.0
14/08/2023,00:49:05,0.000,0.0,0.0,0.0
14/08/2023,00:50:05,-0.001,0.0,0.0,0.0
14/08/2023,00:51:05,0.000,0.0,0.0,0.0
14/08/2023,00:52:05,0.000,0.0,0.0,0.0
14/08/2023,00:53:05,0.001,0.0,0.0,0.0
14/08/2023,00:54:05,0.000,0.0,0.0,0.0
14/08/2023,00:55:05,0.000,0.0,0.0,0.0
14/08/2023,00:56:05,0.000,0.0,0.0,0.0
14/08/2023,00:57:03,0.000,0.0,0.0,0.0
14/08/2023,00:58:03,0.000,0.0,0.0,0.0
14/08/2023,00:59:05,0.000,0.0,0.0,0.0
14/08/2023,01:00:05,0.001,0.0,0.0,0.0
14/08/2023,01:01:04,0.000,0.0,0.0,0.0
14/08/2023,01:02:05,0.000,0.0,0.0,0.0
14/08/2023,01:03:05,0.001,0.0,0.0,0.0
14/08/2023,01:04:05,0.000,0.0,0.0,0.0
14/08/2023,01:05:05,0.000,0.0,0.0,0.0
14/08/2023,01:06:05,0.001,0.0,0.0,0.0
14/08/2023,01:07:07,0.000,0.0,0.0,0.0
14/08/2023,01:08:05,0.001,0.0,0.0,0.0
14/08/2023,01:09:05,0.000,0.0,0.0,0.0
14/08/2023,01:10:05,0.000,0.0,0.0,0.0
14/08/2023,01:11:05,0.000,0.0,0.0,0.0
14/08/2023,01:12:06,0.001,0.0,0.0,0.0
14/08/2023,01:13:05,0.001,0.0,0.0,0.0
14/08/2023,01:14:05,0.001,0.0,0.0,0.0
14/08/2023,01:15:05,0.001,0.0,0.0,0.0
14/08/2023,01:16:05,0.001,0.0,0.0,0.0
14/08/2023,01:17:05,0.001,0.0,0.0,0.0
14/08/2023,01:18:05,0.001,0.0,0.0,0.0
14/08/2023,01:19:05,0.000,0.0,0.0,0.0
14/08/2023,01:20:05,0.001,0.0,0.0,0.0
14/08/2023,01:21:05,0.000,0.0,0.0,0.0
14/08/2023,01:22:05,0.001,0.0,0.0,0.0
14/08/2023,01:23:05,0.001,0.0,0.0,0.0
14/08/2023,01:24:06,0.000,0.0,0.0,0.0
14/08/2023,01:25:05,0.001,0.0,0.0,0.0
14/08/2023,01:26:05,0.001,0.0,0.0,0.0
14/08/2023,01:27:05,0.001,0.0,0.0,0.0
14/08/2023,01:28:05,0.001,0.0,0.0,0.0
14/08/2023,01:29:05,0.001,0.0,0.0,0.0
14/08/2023,01:30:05,0.000,0.0,0.0,0.0
14/08/2023,01:31:05,0.001,0.0,0.0,0.0
14/08/2023,01:32:05,0.000,0.0,0.0,0.0
14/08/2023,01:33:05,0.000,0.0,0.0,0.0
14/08/2023,01:34:05,0.001,0.0,0.0,0.0
14/08/2023,01:35:05,0.001,0.0,0.0,0.0
14/08/2023,01:36:05,0.001,0.0,0.0,0.0
14/08/2023,01:37:05,0.001,0.0,0.0,0.0
14/08/2023,01:38:05,0.000,0.0,0.0,0.0
14/08/2023,01:39:05,0.001,0.0,0.0,0.0
14/08/2023,01:40:05,0.002,0.0,0.0,0.0
14/08/2023,01:41:05,0.001,0.0,0.0,0.0
14/08/2023,01:42:06,0.001,0.0,0.0,0.0
14/08/2023,01:43:05,0.001,0.0,0.0,0.0
14/08/2023,01:44:05,0.001,0.0,0.0,0.0
14/08/2023,01:45:05,0.001,0.0,0.0,0.0
14/08/2023,01:46:05,0.001,0.0,0.0,0.0
14/08/2023,01:47:06,0.001,0.0,0.0,0.0
14/08/2023,01:48:05,0.001,0.0,0.0,0.0
14/08/2023,01:49:05,0.001,0.0,0.0,0.0
14/08/2023,01:50:05,0.001,0.0,0.0,0.0
14/08/2023,01:51:06,0.000,0.0,0.0,0.0
14/08/2023,01:52:05,0.000,0.0,0.0,0.0
14/08/2023,01:53:05,0.000,0.0,0.0,0.0
14/08/2023,01:54:05,0.002,0.0,0.0,0.0
14/08/2023,01:55:05,0.000,0.0,0.0,0.0
14/08/2023,01:56:05,0.001,0.0,0.0,0.0
14/08/2023,01:57:04,0.001,0.0,0.0,0.0
14/08/2023,01:58:03,0.001,0.0,0.0,0.0
14/08/2023,01:59:05,0.001,0.0,0.0,0.0
14/08/2023,02:00:05,0.000,0.0,0.0,0.0
14/08/2023,02:01:05,0.002,0.0,0.0,0.0
14/08/2023,02:02:05,0.001,0.0,0.0,0.0
14/08/2023,02:03:05,0.001,0.0,0.0,0.0
14/08/2023,02:04:05,0.001,0.0,0.0,0.0
14/08/2023,02:05:05,0.001,0.0,0.0,0.0
14/08/2023,02:06:05,0.002,0.0,0.0,0.0
14/08/2023,02:07:06,0.000,0.0,0.0,0.0
14/08/2023,02:08:05,0.000,0.0,0.0,0.0
14/08/2023,02:09:05,0.001,0.0,0.0,0.0
14/08/2023,02:10:05,0.000,0.0,0.0,0.0
14/08/2023,02:11:06,0.000,0.0,0.0,0.0
14/08/2023,02:12:03,0.001,0.0,0.0,0.0
14/08/2023,02:13:03,0.001,0.0,0.0,0.0
14/08/2023,02:14:05,0.001,0.0,0.0,0.0
14/08/2023,02:15:05,0.001,0.0,0.0,0.0
14/08/2023,02:16:05,0.000,0.0,0.0,0.0
14/08/2023,02:17:06,0.001,0.0,0.0,0.0
14/08/2023,02:18:05,0.001,0.0,0.0,0.0
14/08/2023,02:19:05,0.001,0.0,0.0,0.0
14/08/2023,02:20:05,0.000,0.0,0.0,0.0
14/08/2023,02:21:05,0.001,0.0,0.0,0.0
14/08/2023,02:22:06,0.001,0.0,0.0,0.0
14/08/2023,02:23:05,0.001,0.0,0.0,0.0
14/08/2023,02:24:05,0.001,0.0,0.0,0.0
14/08/2023,02:25:05,0.000,0.0,0.0,0.0
14/08/2023,02:26:06,0.002,0.0,0.0,0.0
14/08/2023,02:27:05,0.000,0.0,0.0,0.0
14/08/2023,02:28:05,0.002,0.0,0.0,0.0
14/08/2023,02:29:03,0.002,0.0,0.0,0.0
14/08/2023,02:30:03,0.001,0.0,0.0,0.0
14/08/2023,02:31:05,0.000,0.0,0.0,0.0
14/08/2023,02:32:05,0.001,0.0,0.0,0.0
14/08/2023,02:33:05,0.001,0.0,0.0,0.0
14/08/2023,02:34:04,0.002,0.0,0.0,0.0
14/08/2023,02:35:03,0.001,0.0,0.0,0.0
14/08/2023,02:36:05,0.000,0.0,0.0,0.0
14/08/2023,02:37:06,0.000,0.0,0.0,0.0
14/08/2023,02:38:05,0.001,0.0,0.0,0.0
14/08/2023,02:39:06,0.001,0.0,0.0,0.0
14/08/2023,02:40:06,0.001,0.0,0.0,0.0
14/08/2023,02:41:06,0.000,0.0,0.0,0.0
14/08/2023,02:42:03,0.000,0.0,0.0,0.0
14/08/2023,02:43:04,0.001,0.0,0.0,0.0
14/08/2023,02:44:06,0.000,0.0,0.0,0.0
14/08/2023,02:45:05,-0.000,0.0,0.0,0.0
14/08/2023,02:46:05,0.001,0.0,0.0,0.0
14/08/2023,02:47:03,0.001,0.0,0.0,0.0
14/08/2023,02:48:03,0.001,0.0,0.0,0.0
14/08/2023,02:49:05,0.002,0.0,0.0,0.0
14/08/2023,02:50:05,0.001,0.0,0.0,0.0
14/08/2023,02:51:06,0.001,0.0,0.0,0.0
14/08/2023,02:52:05,0.002,0.0,0.0,0.0
14/08/2023,02:53:06,0.000,0.0,0.0,0.0
14/08/2023,02:54:05,0.001,0.0,0.0,0.0
14/08/2023,02:55:05,0.001,0.0,0.0,0.0
14/08/2023,02:56:05,0.002,0.0,0.0,0.0
14/08/2023,02:57:06,0.000,0.0,0.0,0.0
14/08/2023,02:58:05,0.001,0.0,0.0,0.0
14/08/2023,02:59:05,0.001,0.0,0.0,0.0
14/08/2023,03:00:05,0.000,0.0,0.0,0.0
14/08/2023,03:01:05,0.001,0.0,0.0,0.0
14/08/2023,03:02:05,0.001,0.0,0.0,0.0
14/08/2023,03:03:05,0.001,0.0,0.0,0.0
14/08/2023,03:04:05,0.001,0.0,0.0,0.0
14/08/2023,03:05:06,0.001,0.0,0.0,0.0
14/08/2023,03:06:05,0.001,0.0,0.0,0.0
14/08/2023,03:07:06,0.001,0.0,0.0,0.0
14/08/2023,03:08:05,0.001,0.0,0.0,0.0
14/08/2023,03:09:05,0.001,0.0,0.0,0.0
14/08/2023,03:10:05,0.001,0.0,0.0,0.0
14/08/2023,03:11:06,0.002,0.0,0.0,0.0
14/08/2023,03:12:05,0.000,0.0,0.0,0.0
14/08/2023,03:13:06,0.000,0.0,0.0,0.0
14/08/2023,03:14:05,0.000,0.0,0.0,0.0
14/08/2023,03:15:05,0.000,0.0,0.0,0.0
14/08/2023,03:16:05,0.001,0.0,0.0,0.0
14/08/2023,03:17:06,0.001,0.0,0.0,0.0
14/08/2023,03:18:05,0.000,0.0,0.0,0.0
14/08/2023,03:19:05,0.001,0.0,0.0,0.0
14/08/2023,03:20:05,0.001,0.0,0.0,0.0
14/08/2023,03:21:06,0.000,0.0,0.0,0.0
14/08/2023,03:22:05,0.001,0.0,0.0,0.0
14/08/2023,03:23:06,0.001,0.0,0.0,0.0
14/08/2023,03:24:05,0.001,0.0,0.0,0.0
14/08/2023,03:25:05,0.001,0.0,0.0,0.0
14/08/2023,03:26:06,0.001,0.0,0.0,0.0
14/08/2023,03:27:05,0.002,0.0,0.0,0.0
14/08/2023,03:28:08,0.001,0.0,0.0,0.0
14/08/2023,03:29:05,0.001,0.0,0.0,0.0
14/08/2023,03:30:05,0.002,0.0,0.0,0.0
14/08/2023,03:31:06,0.001,0.0,0.0,0.0
14/08/2023,03:32:05,0.001,0.0,0.0,0.0
14/08/2023,03:33:05,0.001,0.0,0.0,0.0
14/08/2023,03:34:05,0.001,0.0,0.0,0.0
14/08/2023,03:35:05,0.001,0.0,0.0,0.0
14/08/2023,03:36:06,0.000,0.0,0.0,0.0
14/08/2023,03:37:06,0.001,0.0,0.0,0.0
14/08/2023,03:38:05,0.002,0.0,0.0,0.0
14/08/2023,03:39:05,0.000,0.0,0.0,0.0
14/08/2023,03:40:05,0.002,0.0,0.0,0.0
14/08/2023,03:41:04,0.001,0.0,0.0,0.0
14/08/2023,03:42:03,0.001,0.0,0.0,0.0
14/08/2023,03:43:06,0.001,0.0,0.0,0.0
14/08/2023,03:44:05,0.002,0.0,0.0,0.0
14/08/2023,03:45:03,0.000,0.0,0.0,0.0
14/08/2023,03:46:03,0.000,0.0,0.0,0.0
14/08/2023,03:47:05,0.000,0.0,0.0,0.0
14/08/2023,03:48:03,0.001,0.0,0.0,0.0
14/08/2023,03:49:03,0.001,0.0,0.0,0.0
14/08/2023,03:50:05,0.002,0.0,0.0,0.0
14/08/2023,03:51:05,0.002,0.0,0.0,0.0
14/08/2023,03:52:06,0.001,0.0,0.0,0.0
14/08/2023,03:53:05,0.001,0.0,0.0,0.0
14/08/2023,03:54:05,0.001,0.0,0.0,0.0
14/08/2023,03:55:05,0.002,0.0,0.0,0.0
14/08/2023,03:56:06,0.001,0.0,0.0,0.0
14/08/2023,03:57:05,0.001,0.0,0.0,0.0
14/08/2023,03:58:05,0.001,0.0,0.0,0.0
14/08/2023,03:59:05,0.002,0.0,0.0,0.0
14/08/2023,04:00:06,0.001,0.0,0.0,0.0
14/08/2023,04:01:06,0.002,0.0,0.0,0.0
14/08/2023,04:02:06,0.001,0.0,0.0,0.0
14/08/2023,04:03:05,0.002,0.0,0.0,0.0
14/08/2023,04:04:06,0.000,0.0,0.0,0.0
14/08/2023,04:05:05,0.001,0.0,0.0,0.0
14/08/2023,04:06:05,0.001,0.0,0.0,0.0
14/08/2023,04:07:05,0.000,0.0,0.0,0.0
14/08/2023,04:08:06,0.001,0.0,0.0,0.0
14/08/2023,04:09:05,0.001,0.0,0.0,0.0
14/08/2023,04:10:05,0.000,0.0,0.0,0.0
14/08/2023,04:11:06,0.000,0.0,0.0,0.0
14/08/2023,04:12:05,0.001,0.0,0.0,0.0
14/08/2023,04:13:05,0.000,0.0,0.0,0.0
14/08/2023,04:14:05,0.001,0.0,0.0,0.0
14/08/2023,04:15:05,0.001,0.0,0.0,0.0
14/08/2023,04:16:05,0.001,0.0,0.0,0.0
14/08/2023,04:17:05,0.001,0.0,0.0,0.0
14/08/2023,04:18:05,0.001,0.0,0.0,0.0
14/08/2023,04:19:05,0.001,0.0,0.0,0.0
14/08/2023,04:20:05,0.001,0.0,0.0,0.0
14/08/2023,04:21:07,0.001,0.0,0.0,0.0
14/08/2023,04:22:05,0.001,0.0,0.0,0.0
14/08/2023,04:23:05,0.000,0.0,0.0,0.0
14/08/2023,04:24:05,0.001,0.0,0.0,0.0
14/08/2023,04:25:05,0.000,0.0,0.0,0.0
14/08/2023,04:26:06,0.001,0.0,0.0,0.0
14/08/2023,04:27:05,0.001,0.0,0.0,0.0
14/08/2023,04:28:06,0.002,0.0,0.0,0.0
14/08/2023,04:29:05,0.000,0.0,0.0,0.0
14/08/2023,04:30:05,0.000,0.0,0.0,0.0
14/08/2023,04:31:05,0.002,0.0,0.0,0.0
14/08/2023,04:32:06,0.001,0.0,0.0,0.0
14/08/2023,04:33:05,0.001,0.0,0.0,0.0
14/08/2023,04:34:06,0.001,0.0,0.0,0.0
14/08/2023,04:35:05,0.001,0.0,0.0,0.0
14/08/2023,04:36:05,0.001,0.0,0.0,0.0
14/08/2023,04:37:03,0.001,0.0,0.0,0.0
14/08/2023,04:38:03,0.001,0.0,0.0,0.0
14/08/2023,04:39:05,0.001,0.0,0.0,0.0
14/08/2023,04:40:04,0.000,0.0,0.0,0.0
14/08/2023,04:41:03,0.002,0.0,0.0,0.0
14/08/2023,04:42:05,0.001,0.0,0.0,0.0
14/08/2023,04:43:05,0.001,0.0,0.0,0.0
14/08/2023,04:44:06,0.001,0.0,0.0,0.0
14/08/2023,04:45:05,0.001,0.0,0.0,0.0
14/08/2023,04:46:05,0.001,0.0,0.0,0.0
14/08/2023,04:47:05,0.002,0.0,0.0,0.0
14/08/2023,04:48:06,0.001,0.0,0.0,0.0
14/08/2023,04:49:05,0.002,0.0,0.0,0.0
14/08/2023,04:50:05,0.002,0.0,0.0,0.0
14/08/2023,04:51:03,0.001,0.0,0.0,0.0
14/08/2023,04:52:04,0.002,0.0,0.0,0.0
14/08/2023,04:53:06,0.001,0.0,0.0,0.0
14/08/2023,04:54:05,0.001,0.0,0.0,0.0
14/08/2023,04:55:05,0.001,0.0,0.0,0.0
14/08/2023,04:56:06,0.001,0.0,0.0,0.0
14/08/2023,04:57:06,0.002,0.0,0.0,0.0
14/08/2023,04:58:05,0.001,0.0,0.0,0.0
14/08/2023,04:59:05,0.003,0.0,0.0,0.0
14/08/2023,05:00:06,0.002,0.0,0.0,0.0
14/08/2023,05:01:05,0.002,0.0,0.0,0.0
14/08/2023,05:02:06,0.001,0.0,0.0,0.0
14/08/2023,05:03:05,0.002,0.0,0.0,0.0
14/08/2023,05:04:06,0.002,0.0,0.0,0.0
14/08/2023,05:05:05,0.002,0.0,0.0,0.0
14/08/2023,05:06:05,0.002,0.0,0.0,0.0
14/08/2023,05:07:05,0.002,0.0,0.0,0.0
14/08/2023,05:08:06,0.002,0.0,0.0,0.0
14/08/2023,05:09:05,0.004,0.0,0.0,0.0
14/08/2023,05:10:05,0.003,0.0,0.0,0.0
14/08/2023,05:11:05,0.002,0.0,0.0,0.0
14/08/2023,05:12:05,0.003,0.0,0.0,0.0
14/08/2023,05:13:06,0.002,0.0,0.0,0.0
14/08/2023,05:14:05,0.003,0.0,0.0,0.0
14/08/2023,05:15:06,0.002,0.0,0.0,0.0
14/08/2023,05:16:05,0.002,0.0,0.0,0.0
14/08/2023,05:17:05,0.002,0.0,0.0,0.0
14/08/2023,05:18:05,0.002,0.0,0.0,0.0
14/08/2023,05:19:06,0.004,0.0,0.0,0.0
14/08/2023,05:20:05,0.003,0.0,0.0,0.0
14/08/2023,05:21:06,0.005,0.0,0.0,0.0
14/08/2023,05:22:05,0.006,0.0,0.0,0.0
14/08/2023,05:23:05,0.006,0.0,0.0,0.0
14/08/2023,05:24:06,0.006,0.0,0.0,0.0
14/08/2023,05:25:05,0.006,0.0,0.0,0.0
14/08/2023,05:26:05,0.005,0.0,0.0,0.0
14/08/2023,05:27:05,0.005,0.0,0.0,0.0
14/08/2023,05:28:06,0.004,0.0,0.0,0.0
14/08/2023,05:29:05,0.004,0.0,0.0,0.0
14/08/2023,05:30:05,0.005,0.0,0.0,0.0
14/08/2023,05:31:06,0.006,0.0,0.0,0.0
14/08/2023,05:32:05,0.005,0.0,0.0,0.0
14/08/2023,05:33:05,0.006,0.0,0.0,0.0
14/08/2023,05:34:05,0.005,0.0,0.0,0.0
14/08/2023,05:35:06,0.005,0.0,0.0,0.0
14/08/2023,05:36:05,0.006,0.0,0.0,0.0
14/08/2023,05:37:05,0.005,0.0,0.0,0.0
14/08/2023,05:38:06,0.007,0.0,0.0,0.0
14/08/2023,05:39:05,0.008,0.0,0.001,0.001
14/08/2023,05:40:05,0.010,0.0,0.001,0.0
14/08/2023,05:41:05,0.011,0.0,0.001,0.0
14/08/2023,05:42:05,0.013,0.0,0.001,0.0
14/08/2023,05:43:03,0.012,0.0,0.001,0.0
14/08/2023,05:44:04,0.011,0.0,0.002,0.001
14/08/2023,05:45:05,0.011,0.0,0.002,0.0
14/08/2023,05:46:06,0.011,0.0,0.002,0.0
14/08/2023,05:47:05,0.011,0.0,0.002,0.0
14/08/2023,05:48:06,0.010,0.0,0.002,0.0
14/08/2023,05:49:05,0.009,0.0,0.002,0.0
14/08/2023,05:50:06,0.010,0.0,0.003,0.001
14/08/2023,05:51:05,0.012,0.0,0.003,0.0
14/08/2023,05:52:05,0.012,0.0,0.003,0.0
14/08/2023,05:53:06,0.010,0.0,0.003,0.0
14/08/2023,05:54:05,0.009,0.0,0.003,0.0
14/08/2023,05:55:05,0.009,0.0,0.003,0.0
14/08/2023,05:56:05,0.012,0.0,0.004,0.001
14/08/2023,05:57:06,0.013,0.0,0.004,0.0
14/08/2023,05:58:05,0.017,0.0,0.004,0.0
14/08/2023,05:59:05,0.019,0.0,0.004,0.0
14/08/2023,06:00:05,0.023,0.0,0.005,0.001
14/08/2023,06:01:06,0.021,0.0,0.005,0.0
14/08/2023,06:02:05,0.023,0.0,0.005,0.0
14/08/2023,06:03:06,0.023,0.0,0.006,0.001
14/08/2023,06:04:05,0.027,0.0,0.006,0.0
14/08/2023,06:05:06,0.026,0.0,0.007,0.001
14/08/2023,06:06:05,0.021,0.0,0.007,0.0
14/08/2023,06:07:05,0.020,0.0,0.007,0.0
14/08/2023,06:08:06,0.024,0.0,0.008,0.001
14/08/2023,06:09:05,0.022,0.0,0.008,0.0
14/08/2023,06:10:05,0.022,0.0,0.008,0.0
14/08/2023,06:11:06,0.019,0.0,0.009,0.001
14/08/2023,06:12:06,0.019,0.0,0.009,0.0
14/08/2023,06:13:05,0.026,0.0,0.01,0.001
14/08/2023,06:14:06,0.031,0.0,0.01,0.0
14/08/2023,06:15:05,0.038,0.0,0.011,0.001
14/08/2023,06:16:06,0.036,0.0,0.011,0.0
14/08/2023,06:17:05,0.035,0.0,0.012,0.001
14/08/2023,06:18:05,0.039,0.0,0.012,0.0
14/08/2023,06:19:05,0.039,0.0,0.013,0.001
14/08/2023,06:20:06,0.042,0.0,0.014,0.001
14/08/2023,06:21:05,0.043,0.0,0.014,0.0
14/08/2023,06:22:05,0.047,0.0,0.015,0.001
14/08/2023,06:23:06,0.050,0.0,0.016,0.001
14/08/2023,06:24:06,0.058,0.0,0.017,0.001
14/08/2023,06:25:05,0.059,0.0,0.018,0.001
14/08/2023,06:26:05,0.056,0.0,0.019,0.001
14/08/2023,06:27:05,0.055,0.0,0.02,0.001
14/08/2023,06:28:06,0.053,0.0,0.021,0.001
14/08/2023,06:29:06,0.058,0.0,0.022,0.001
14/08/2023,06:30:05,0.061,0.0,0.023,0.001
14/08/2023,06:31:05,0.058,0.0,0.024,0.001
14/08/2023,06:32:03,0.059,0.0,0.025,0.001
14/08/2023,06:33:03,0.063,0.0,0.026,0.001
14/08/2023,06:34:06,0.057,0.0,0.027,0.001
14/08/2023,06:35:05,0.051,0.0,0.027,0.0
14/08/2023,06:36:05,0.048,0.0,0.028,0.001
14/08/2023,06:37:05,0.038,0.0,0.029,0.001
14/08/2023,06:38:04,0.041,0.0,0.03,0.001
14/08/2023,06:39:03,0.042,0.0,0.03,0.0
14/08/2023,06:40:05,0.039,0.0,0.031,0.001
14/08/2023,06:41:06,0.037,0.0,0.032,0.001
14/08/2023,06:42:05,0.031,0.0,0.032,0.0
14/08/2023,06:43:06,0.042,0.0,0.033,0.001
14/08/2023,06:44:05,0.049,0.0,0.034,0.001
14/08/2023,06:45:06,0.050,0.0,0.034,0.0
14/08/2023,06:46:05,0.049,0.0,0.035,0.001
14/08/2023,06:47:06,0.054,0.0,0.036,0.001
14/08/2023,06:48:05,0.064,0.0,0.037,0.001
14/08/2023,06:49:06,0.083,0.0,0.038,0.001
14/08/2023,06:50:06,0.091,0.0,0.04,0.002
14/08/2023,06:51:05,0.091,0.0,0.041,0.001
14/08/2023,06:52:06,0.098,0.0,0.043,0.002
14/08/2023,06:53:05,0.093,0.0,0.044,0.001
14/08/2023,06:54:05,0.099,0.0,0.046,0.002
14/08/2023,06:55:06,0.116,0.0,0.048,0.002
14/08/2023,06:56:05,0.113,0.0,0.05,0.002
14/08/2023,06:57:05,0.113,0.0,0.052,0.002
14/08/2023,06:58:04,0.117,0.0,0.053,0.001
14/08/2023,06:59:03,0.112,0.0,0.055,0.002
14/08/2023,07:00:05,0.109,0.0,0.057,0.002
14/08/2023,07:01:06,0.097,0.0,0.059,0.002
14/08/2023,07:02:06,0.107,0.0,0.061,0.002
14/08/2023,07:03:05,0.100,0.0,0.062,0.001
14/08/2023,07:04:06,0.104,0.0,0.064,0.002
14/08/2023,07:05:05,0.094,0.0,0.066,0.002
14/08/2023,07:06:05,0.090,0.0,0.067,0.001
14/08/2023,07:07:06,0.082,0.0,0.069,0.002
14/08/2023,07:08:06,0.073,0.0,0.07,0.001
14/08/2023,07:09:06,0.079,0.0,0.071,0.001
14/08/2023,07:10:06,0.085,0.0,0.073,0.002
14/08/2023,07:11:06,0.076,0.0,0.074,0.001
14/08/2023,07:12:06,0.067,0.0,0.075,0.001
14/08/2023,07:13:05,0.061,0.0,0.076,0.001
14/08/2023,07:14:05,0.065,0.0,0.077,0.001
14/08/2023,07:15:06,0.074,0.0,0.078,0.001
14/08/2023,07:16:03,0.074,0.0,0.08,0.002
14/08/2023,07:17:04,0.076,0.0,0.081,0.001
14/08/2023,07:18:06,0.076,0.0,0.082,0.001
14/08/2023,07:19:05,0.073,0.0,0.083,0.001
14/08/2023,07:20:05,0.069,0.0,0.085,0.002
14/08/2023,07:21:06,0.054,0.0,0.086,0.001
14/08/2023,07:22:05,0.036,0.0,0.086,0.0
14/08/2023,07:23:06,0.035,0.0,0.087,0.001
14/08/2023,07:24:06,0.037,0.0,0.088,0.001
14/08/2023,07:25:06,0.029,0.0,0.088,0.0
14/08/2023,07:26:05,0.022,0.0,0.089,0.001
14/08/2023,07:27:06,0.020,0.0,0.089,0.0
14/08/2023,07:28:05,0.021,0.0,0.089,0.0
14/08/2023,07:29:05,0.024,0.0,0.09,0.001
14/08/2023,07:30:06,0.025,0.0,0.09,0.0
14/08/2023,07:31:05,0.026,0.0,0.09,0.0
14/08/2023,07:32:06,0.032,0.0,0.091,0.001
14/08/2023,07:33:05,0.037,0.0,0.092,0.001
14/08/2023,07:34:05,0.033,0.0,0.092,0.0
14/08/2023,07:35:06,0.034,0.0,0.093,0.001
14/08/2023,07:36:05,0.039,0.0,0.093,0.0
14/08/2023,07:37:06,0.048,0.0,0.094,0.001
14/08/2023,07:38:06,0.053,0.0,0.095,0.001
14/08/2023,07:39:05,0.063,0.0,0.096,0.001
14/08/2023,07:40:05,0.067,0.0,0.097,0.001
14/08/2023,07:41:05,0.068,0.0,0.098,0.001
14/08/2023,07:42:06,0.066,0.0,0.099,0.001
14/08/2023,07:43:05,0.049,0.0,0.1,0.001
14/08/2023,07:44:06,0.064,0.0,0.101,0.001
14/08/2023,07:45:05,0.076,0.0,0.102,0.001
14/08/2023,07:46:05,0.067,0.0,0.104,0.002
14/08/2023,07:47:06,0.064,0.0,0.105,0.001
14/08/2023,07:48:05,0.075,0.0,0.106,0.001
14/08/2023,07:49:06,0.082,0.0,0.107,0.001
14/08/2023,07:50:06,0.096,0.0,0.109,0.002
14/08/2023,07:51:06,0.105,0.0,0.11,0.001
14/08/2023,07:52:05,0.132,0.0,0.112,0.002
14/08/2023,07:53:06,0.125,0.0,0.114,0.002
14/08/2023,07:54:06,0.117,0.0,0.116,0.002
14/08/2023,07:55:06,0.109,0.0,0.118,0.002
14/08/2023,07:56:06,0.106,0.0,0.12,0.002
14/08/2023,07:57:05,0.106,0.0,0.122,0.002
14/08/2023,07:58:05,0.136,0.0,0.124,0.002
14/08/2023,07:59:06,0.176,0.0,0.126,0.002
14/08/2023,08:00:06,0.190,0.0,0.13,0.004
14/08/2023,08:01:05,0.185,0.0,0.133,0.003
14/08/2023,08:02:06,0.197,0.0,0.136,0.003
14/08/2023,08:03:05,0.215,0.0,0.139,0.003
14/08/2023,08:04:05,0.225,1.0,0.143,0.004
14/08/2023,08:05:06,0.241,1.0,0.147,0.004
14/08/2023,08:06:05,0.264,1.0,0.151,0.004
14/08/2023,08:07:05,0.267,1.0,0.155,0.004
14/08/2023,08:08:06,0.276,1.0,0.16,0.005
14/08/2023,08:09:06,0.274,1.0,0.165,0.005
14/08/2023,08:10:03,0.294,1.0,0.169,0.004
14/08/2023,08:11:04,0.297,1.0,0.174,0.005
14/08/2023,08:12:05,0.295,1.0,0.179,0.005
14/08/2023,08:13:06,0.299,1.0,0.184,0.005
14/08/2023,08:14:05,0.310,1.0,0.189,0.005
14/08/2023,08:15:06,0.340,1.0,0.194,0.005
14/08/2023,08:16:06,0.432,1.0,0.201,0.007
14/08/2023,08:17:04,0.339,1.0,0.207,0.006
14/08/2023,08:18:04,0.326,1.0,0.213,0.006
14/08/2023,08:19:06,0.367,1.0,0.219,0.006
14/08/2023,08:20:06,0.416,1.0,0.225,0.006
14/08/2023,08:21:06,0.425,1.0,0.232,0.007
14/08/2023,08:22:05,0.403,1.0,0.239,0.007
14/08/2023,08:23:06,0.313,1.0,0.245,0.006
14/08/2023,08:24:05,0.243,1.0,0.25,0.005
14/08/2023,08:25:06,0.301,1.0,0.254,0.004
14/08/2023,08:26:06,0.280,1.0,0.259,0.005
14/08/2023,08:27:05,0.341,1.0,0.264,0.005
14/08/2023,08:28:06,0.388,1.0,0.27,0.006
14/08/2023,08:29:06,0.423,1.0,0.277,0.007
14/08/2023,08:30:06,0.429,1.0,0.284,0.007
14/08/2023,08:31:06,0.511,1.0,0.292,0.008
14/08/2023,08:32:05,0.534,1.0,0.301,0.009
14/08/2023,08:33:05,0.775,2.0,0.311,0.01
14/08/2023,08:34:06,0.678,2.0,0.322,0.011
14/08/2023,08:35:06,0.617,1.0,0.333,0.011
14/08/2023,08:36:05,0.536,1.0,0.343,0.01
14/08/2023,08:37:06,0.536,1.0,0.351,0.008
14/08/2023,08:38:05,0.658,2.0,0.362,0.011
14/08/2023,08:39:04,0.577,1.0,0.372,0.01
14/08/2023,08:40:04,0.581,1.0,0.382,0.01
14/08/2023,08:41:06,0.586,1.0,0.391,0.009
14/08/2023,08:42:05,0.447,1.0,0.4,0.009
14/08/2023,08:43:05,0.425,1.0,0.407,0.007
14/08/2023,08:44:04,0.390,1.0,0.413,0.006
14/08/2023,08:45:04,0.571,1.0,0.421,0.008
14/08/2023,08:46:05,0.630,1.0,0.432,0.011
14/08/2023,08:47:06,0.563,1.0,0.442,0.01
14/08/2023,08:48:05,0.519,1.0,0.45,0.008
14/08/2023,08:49:06,0.594,1.0,0.46,0.01
14/08/2023,08:50:06,0.490,1.0,0.469,0.009
14/08/2023,08:51:05,0.482,1.0,0.477,0.008
14/08/2023,08:52:06,0.515,1.0,0.486,0.009
14/08/2023,08:53:05,0.572,1.0,0.494,0.008
14/08/2023,08:54:06,0.614,1.0,0.504,0.01
14/08/2023,08:55:05,0.586,1.0,0.514,0.01
14/08/2023,08:56:06,0.506,1.0,0.523,0.009
14/08/2023,08:57:05,0.550,1.0,0.532,0.009
14/08/2023,08:58:06,0.707,2.0,0.542,0.01
14/08/2023,08:59:04,0.858,2.0,0.556,0.014
14/08/2023,09:00:04,0.796,2.0,0.569,0.013
14/08/2023,09:01:04,0.759,2.0,0.583,0.014
14/08/2023,09:02:04,0.731,2.0,0.595,0.012
14/08/2023,09:03:06,0.755,2.0,0.608,0.013
14/08/2023,09:04:05,0.652,2.0,0.62,0.012
14/08/2023,09:05:05,0.678,2.0,0.631,0.011
14/08/2023,09:06:06,0.760,2.0,0.643,0.012
14/08/2023,09:07:06,0.720,2.0,0.656,0.013
14/08/2023,09:08:05,0.644,1.0,0.667,0.011
14/08/2023,09:09:06,0.478,1.0,0.676,0.009
14/08/2023,09:10:07,0.573,1.0,0.685,0.009
14/08/2023,09:11:07,0.601,1.0,0.694,0.009
14/08/2023,09:12:06,0.593,1.0,0.705,0.011
14/08/2023,09:13:06,0.549,1.0,0.714,0.009
14/08/2023,09:14:05,0.535,1.0,0.723,0.009
14/08/2023,09:15:05,0.494,1.0,0.732,0.009
14/08/2023,09:16:06,0.582,1.0,0.74,0.008
14/08/2023,09:17:06,0.605,1.0,0.75,0.01
14/08/2023,09:18:04,0.581,1.0,0.76,0.01
14/08/2023,09:19:04,0.563,1.0,0.77,0.01
14/08/2023,09:20:06,0.541,1.0,0.779,0.009
14/08/2023,09:21:05,0.547,1.0,0.788,0.009
14/08/2023,09:22:05,0.478,1.0,0.797,0.009
14/08/2023,09:23:06,0.422,1.0,0.804,0.007
14/08/2023,09:24:06,0.535,1.0,0.812,0.008
14/08/2023,09:25:06,0.548,1.0,0.821,0.009
14/08/2023,09:26:03,0.449,1.0,0.83,0.009
14/08/2023,09:27:04,0.373,1.0,0.836,0.006
14/08/2023,09:28:06,0.335,1.0,0.842,0.006
14/08/2023,09:29:08,0.331,1.0,0.848,0.006
14/08/2023,09:30:06,0.297,1.0,0.853,0.005
14/08/2023,09:31:06,0.349,1.0,0.858,0.005
14/08/2023,09:32:06,0.489,1.0,0.865,0.007
14/08/2023,09:33:06,0.404,1.0,0.873,0.008
14/08/2023,09:34:06,0.361,1.0,0.879,0.006
14/08/2023,09:35:05,0.396,1.0,0.886,0.007
14/08/2023,09:36:06,0.411,1.0,0.892,0.006
14/08/2023,09:37:06,0.541,1.0,0.9,0.008
14/08/2023,09:38:06,0.729,2.0,0.911,0.011
14/08/2023,09:39:06,0.757,2.0,0.924,0.013
14/08/2023,09:40:06,0.681,2.0,0.936,0.012
14/08/2023,09:41:06,0.625,1.0,0.946,0.01
14/08/2023,09:42:05,0.536,1.0,0.956,0.01
14/08/2023,09:43:06,0.763,2.0,0.967,0.011
14/08/2023,09:44:06,1.105,3.0,0.982,0.015
14/08/2023,09:45:05,1.458,3.0,1.003,0.021
14/08/2023,09:46:05,1.004,2.0,1.023,0.02
14/08/2023,09:47:06,0.740,2.0,1.038,0.015
14/08/2023,09:48:06,0.531,1.0,1.048,0.01
14/08/2023,09:49:06,0.586,1.0,1.057,0.009
14/08/2023,09:50:03,0.559,1.0,1.066,0.009
14/08/2023,09:51:03,0.688,2.0,1.077,0.011
14/08/2023,09:52:06,0.550,1.0,1.088,0.011
14/08/2023,09:53:06,0.733,2.0,1.097,0.009
14/08/2023,09:54:06,0.774,2.0,1.111,0.014
14/08/2023,09:55:06,1.062,2.0,1.124,0.013
14/08/2023,09:56:06,0.882,2.0,1.139,0.015
14/08/2023,09:57:06,0.851,2.0,1.154,0.015
14/08/2023,09:58:06,0.696,2.0,1.167,0.013
14/08/2023,09:59:06,0.807,2.0,1.179,0.012
14/08/2023,10:00:06,0.739,2.0,1.192,0.013
14/08/2023,10:01:06,0.739,2.0,1.205,0.013
14/08/2023,10:02:06,0.668,2.0,1.217,0.012
14/08/2023,10:03:05,0.693,2.0,1.228,0.011